Timeline UpdatesTrip UpdatesNews PostsPvt PostsTravel TipsAdmin PostsConv PostsFollowed PostsChat RequestsBlog PostsPNR Posts

Disclaimer
Search
 
 
Thu Aug 28, 2014 20:40:08 ISTHomeTrainsΣChainsAtlasPNRForumGalleryNewsFAQTripsMembersLoginFeedback
No Recent News for this Train
Other Trains in the News **new
Latest...
.
Mon Jun 30, 2014 (08:03PM)
⇐ Return Journey: Train# 12322

12321/Howrah - Mumbai CST Mail (via Allahabad)

Dec 01 2013 (3:46PM)
Change Departure Station:
Change Arrival Station:
Post a Train Travel TipPost a Train Travel Tip **new
Post a Comment/Question/Picture/VideoPost a Comment/Question/Picture/Video
Pantry/Catering
✓ Pantry Car Avbl
✓ Catering Avbl
Loco/Rake Reversals
ALD/Allahabad Junction (10);
RSA - Rake Sharing
No RSA.
Rake/Coach Composition
LOCO-SLR-GEN(ONLY FOR MILITARY)-GEN-S1-S2-S3-S4-S5-S6-S7-S8-S9-S10-S11-PC-B1-B2-B3-A1-HA1-GEN-SLR.
Loco
#WAP/M 4 HWH/MGS Shed Till ALD ,#WDP 4/B ET Shed(From...
Read more...
ALD-ET)#WAP 4 ET/BSL Shed Till IGP & From IGP #WCAM 3/2P KYN Shed...Author: Ashish tiwari Entry# 333315
News    PNR    Forum    Time-Table    Availability    Fare Chart    Map    Arr/Dep History    Trips    Gallery    ΣChains    X/O    Timeline    
Travel Time: 37h 25m    47 halts    Distance: 2176 km    Avg Speed: 58 km/hr
Type: SuperFast
Zone: ER/Eastern
Departs @ 22:00 (Avg 1h 25m late)
Platform# 9
SMTWTFS
Kolkata Howrah Junction/HWH 
Arrives @ 11:25 +2 nights (Avg 3h 8m late)
Platform# 18
SMTWTFS
Mumbai CST/CSTM 

47 halts. 346 intermediate Stations between Kolkata Howrah Junction and Mumbai CST

Show ALL intermediate Stations  Show Old Time-Table

#CodeStation NameX/OArrivesAvgDepartsAvgHaltPFDay#KmSpeedElevZoneAddress
1HWH»Kolkata Howrah Junction (23)»  -22:00+1:25910.08310mERHowrah 711101, West Bengal
2BWNBarddhaman Junction (8)  23:08+1:4123:13+1:425m--194.48034mERDist - Barddhaman, West Bengal
3PANPanagarh (4)X  23:49+1:4523:50+1:471m--1142.36270mERKaksa, West Bengal
4DGRDurgapur (5)X  00:05+1:4200:07+1:452m32157.98171mERDurgapur, West Bengal
5RNGRaniGanj (4)X  00:25+1:5000:26+1:511m--2182.26092mERRaniganj, West Bengal
6ASNAsansol Junction (7)X  00:44+1:4900:49+1:495m--2200.461113mERDist - bardhaman, West Bengal
7BRRBarakar (2)  01:06+1:4801:07+1:491m--2217.642129mERDist. Bardhaman, West Bengal
8DHNDhanbad Junction (8)  02:05+1:4902:10+1:495m32258.571235mECR2319801. Div. HQ ECR, Jharkhand
9GMONetaji SC Bose Gomoh Junction (6)X  02:35+1:5202:45+1:5310m22288.383239mECRGomoh, Jharkhand
10PNMEParasnath (5)X  02:58+1:5702:59+1:591m32306.474282mECRGiridih 06532-233419, Jharkhand
11HZDHazaribagh Road (3)  03:21+1:5803:22+1:591m--2333.585330mECRHazaribagh, Jharkhand
12KQRKoderma Junction (7)  03:56+2:0403:57+2:061m--2381.854399mECR06534-222410 Koderma, Jharkhand
13GAYAGaya Junction (9)  05:22+1:5005:27+1:505m12458.284117mECR0631-2220283, Bihar
14AUBRAnugraha Narayan Road (4)O  06:16+1:4906:17+1:501m--2526.643104mECR06186-285271, Bihar
15DOSDehri On Sone (6)  06:40+1:4606:42+1:472m--2543.276114mECRRohtas(06184-253154), Bihar
16SSMSasaram Junction (4)X  06:56+1:4806:57+1:491m--2560.877111mECR06184-222051, Bihar
17BBUBhabua Road (4)X  07:34+1:4807:35+1:491m--2608.47880mECR06187-222222, Bihar
18MGSMughal Sarai Junction (8)X  08:17+1:5608:27+1:5910m42663.05683mECRMughalsarai 232101, Uttar Pradesh
19CARChunar Junction (5)  09:01+2:1809:02+2:211m22694.95985mNCRChunar Junction, Uttar Pradesh
20MZPMirzapur (3)X  09:34+2:3609:35+2:391m32726.24988mNCRMirzapur, Uttar Pradesh
21BDLVindhyachal (3)X  09:44+2:4309:45+2:451m32733.56088mNCRMirzapur, Uttar Pradesh
22ALDAllahabad Junction (10)X↵¶11:07+3:2611:27+3:3920m62815.712100mNCRAllahabad 211003, Uttar Pradesh
23NYNNaini Junction (4)  12:02+3:3012:04+3:352m32822.88398mNCRAllahabad, Uttar Pradesh
24SRJShankargarh (3)  12:31+3:4312:32+3:441m12860.257132mNCRShankargarh, Uttar Pradesh
25MKPManikpur Junction (4)X  13:30+3:2513:35+3:255m12915.262250mNCRManikpur, Uttar Pradesh
26STASatna Junction (3)X  14:50+3:1715:00+3:2010m12992.992322mWCRSatna, Madhya Pradesh
27MYRMaihar (3)X  15:23+3:2515:25+3:262m221028.376353mWCRMaihar Railway Station, Madhya Pradesh
28KTEKatni Junction (6)XO  16:15+3:3416:20+3:345m421091.364387mWCRKatni, Madhya Pradesh
29JBPJabalpur Junction (4)X  17:45+3:2617:55+3:3310m121182.179416mWCRJabalpur, Madhya Pradesh
30SRIDShridham (3)  18:35+3:2718:36+3:301m321235.055373mWCRShridham, Madhya Pradesh
31NUNarsinghpur (2)X  19:10+3:4219:12+3:442m221266.268365mWCRNarsimhapur, Madhya Pradesh
32KYKareli (2)X  19:26+3:4419:27+3:451m221282.090361mWCRKareli, Madhya Pradesh
33GARGadarwara (2)X  19:46+3:4919:47+3:501m221310.569352mWCRNarsinghpur, Madhya Pradesh
34PPIPipariya (3)  20:30+3:4620:32+3:472m221359.939338mWCRPiparia, Madhya Pradesh
35ETItarsi Junction (7)X22:15+3:1922:25+3:3610m--21427.189329mWCRItarsi 461111, Madhya Pradesh
36HDHarda (3)  23:16+3:4423:17+3:451m--21502.963289mWCRHarda, Madhya Pradesh
37KNWKhandwa Junction (5)X  01:00+3:1801:05+3:195m--31610.675310mCRKhandwa, Madhya Pradesh
38NPNRNepanagar (2)X  01:39+3:2001:40+3:221m--31653.266289mCRState Highway 27, Madhya Pradesh
39BAUBurhanpur (2)  02:04+3:2302:05+3:241m131679.473269mCRBurhanpur, Madhya Pradesh
40BSLBhusaval Junction (8)X  02:50+3:2403:00+3:3010m331733.960208mCRBhusaval 425201, Maharashtra
41JLJalgaon Junction (4)  03:24+3:3203:25+3:361m231758.094213mCRJalgaon 425001, Maharashtra
42CSNChalisgaon Junction (3)X  04:24+3:4704:25+3:491m--31850.658352mCRChalisgaon 424101, Maharashtra
43MMRManmad Junction (6)  05:35+3:4105:40+3:425m331918.144580mCRManmad 423104, Maharashtra
44NKNasik Road (3)  07:19+2:5707:20+2:591m331990.938563mCRNashik 422101, Maharashtra
45DVLDevlali (3)  07:29+2:5907:30+3:011m231996.650561mCRDist. Nashik 422401, Maharashtra
46IGPIgatpuri (4)X08:24+2:5908:25+3:171m--32041.545589mCRIgatpuri 422403, Maharashtra
47KYNKalyan Junction (8)  10:15+3:1110:20+3:085m632123.36810mCRKalyan 421301, Maharashtra
48DRMumbai Dadar Central (8)  10:59+2:3211:00+2:381m632167.8217mCRMumbai 400014, Maharashtra
49CSTM•Mumbai CST (18)•  11:25+3:08-1832176.4-10mCRMumbai 400001, Maharashtra
Scroll to Top
Scroll to Bottom